GFSWCAN_250_rhum_108.txt.gz
RH
20 21 21 21 20 19 20 21 23 19 13 13 11 8 8 10 9 10 8 6 5 5 5 5 4 5 5 4 4 4 4 5 5 5 5 5 7 7 7 7 7 8 10 10 9 8 9 11 12 12 15 15 18 14
19 19 20 19 18 17 19 22 22 16 15 13 10 9 11 12 10 10 7 6 6 6 5 5 5 5 6 6 6 6 6 8 9 9 8 9 7 8 9 9 9 9 8 9 9 9 11 11 11 12 14 15 17 14
14 15 16 15 14 14 17 21 18 14 15 12 10 11 13 12 12 9 8 7 7 6 5 5 5 6 6 7 8 8 7 7 10 12 12 13 15 13 11 11 11 10 9 10 9 10 10 11 12 13 13 16 17 20
10 11 11 10 11 12 16 16 13 15 14 11 12 13 15 14 12 10 9 8 7 6 7 7 7 6 7 8 9 8 8 7 9 10 11 12 13 13 16 17 13 13 11 10 9 9 9 9 10 13 16 18 20 20
6 7 7 7 8 10 12 11 13 14 12 11 14 16 17 16 12 10 10 8 7 8 8 9 10 10 12 15 16 14 11 10 12 13 14 14 12 13 13 15 16 16 14 10 8 8 8 9 12 14 16 18 20 22
5 5 6 6 7 7 8 11 12 12 10 14 16 19 17 15 13 11 11 9 9 10 10 14 18 20 20 18 15 14 12 12 15 18 21 20 19 17 15 15 15 16 14 14 13 16 16 16 16 17 18 20 22 23
4 4 4 5 6 7 10 11 10 10 13 14 17 17 16 15 17 18 15 14 15 16 17 18 19 22 22 20 18 19 18 20 21 19 21 22 22 19 16 14 14 14 13 14 15 15 16 17 17 18 19 23 24 24
4 4 4 5 7 8 9 9 9 11 13 14 16 17 16 19 20 18 18 18 18 19 19 19 22 27 28 25 23 24 25 26 26 27 27 25 22 18 18 19 18 20 20 20 19 19 18 21 22 21 23 26 26 25
4 4 5 6 6 7 7 8 10 12 13 14 17 20 18 18 21 20 22 21 20 24 23 27 31 28 27 28 29 30 31 29 31 28 25 23 21 24 21 20 18 18 18 18 17 18 19 21 22 24 28 29 26 25
4 4 5 6 6 7 8 10 10 12 13 19 23 19 14 24 21 23 24 25 28 33 37 30 32 35 32 31 32 34 34 34 34 30 27 26 24 25 26 26 26 25 22 22 21 20 22 26 26 24 27 28 28 28
4 5 5 6 7 7 8 10 11 12 22 30 19 15 21 22 22 27 33 38 41 41 36 39 46 47 53 47 41 38 38 37 39 35 32 28 26 26 26 28 30 32 27 26 27 24 22 23 25 23 20 25 27 25
4 5 5 6 8 9 10 10 12 17 28 19 12 16 20 25 28 40 42 48 47 57 48 47 44 45 53 58 51 49 37 42 48 48 43 36 35 33 31 30 34 33 31 29 26 25 25 25 25 26 24 22 25 25
7 7 8 8 8 9 10 10 14 20 22 17 15 20 24 31 38 58 54 65 57 53 65 66 68 72 71 64 59 64 60 65 64 72 60 50 62 53 62 52 39 41 42 42 36 32 27 24 24 22 23 23 23 27
8 8 8 9 10 10 10 11 16 20 20 16 20 27 33 41 53 59 37 26 43 60 62 71 84 88 79 74 74 80 76 72 80 68 56 50 46 48 42 40 34 30 32 30 32 32 28 27 28 30 28 29 26 22
5 5 5 5 6 5 6 8 11 14 15 20 24 34 38 37 34 18 18 25 41 57 68 70 66 65 69 69 73 78 82 85 72 50 45 43 36 33 28 26 25 26 27 28 27 30 32 30 24 22 24 27 31 30
5 5 6 6 6 6 7 7 7 7 10 21 32 36 29 26 21 20 25 39 58 56 58 62 65 72 85 94 96 99 97 86 62 46 32 32 29 22 18 17 17 16 15 15 19 21 24 28 32 31 30 28 26 24
4 4 4 4 5 6 6 7 7 8 8 12 22 25 25 22 30 38 48 64 65 63 74 75 72 73 68 65 51 42 40 36 30 24 20 19 17 19 15 11 11 13 11 10 9 10 13 21 24 25 24 26 24 22
5 4 4 4 4 5 6 7 8 8 7 8 11 14 13 26 33 33 34 38 42 51 57 48 35 31 23 22 20 18 15 13 12 11 11 10 10 9 8 8 8 8 8 7 6 7 7 7 11 14 17 17 17 16
5 5 5 4 4 4 6 7 8 8 9 9 9 10 17 32 28 30 35 38 38 34 28 22 18 14 14 12 12 12 13 12 11 10 10 9 9 8 8 7 6 6 6 6 5 5 6 7 8 8 10 12 14 16
6 6 6 5 5 5 5 6 6 7 9 12 16 18 21 23 26 25 23 20 19 18 15 13 13 13 14 14 12 12 12 11 11 10 9 8 8 7 7 6 6 6 5 5 5 6 6 6 6 7 10 11 14 16
7 7 6 6 6 6 6 7 7 7 7 8 8 10 11 11 13 14 13 13 14 15 16 16 15 13 13 13 16 16 16 15 13 12 12 13 12 10 9 9 8 8 7 7 7 7 6 6 6 7 8 9 11 13
9 9 8 8 8 8 8 8 8 8 9 9 9 10 10 11 12 13 14 15 15 14 14 16 17 19 21 22 20 19 18 18 17 16 15 13 11 11 11 11 10 8 8 8 7 7 8 8 7 8 8 8 9 9
13 12 11 10 9 10 9 10 10 10 10 11 11 12 13 13 13 12 16 18 21 24 26 27 27 27 26 25 24 23 25 25 23 21 21 20 19 17 15 14 11 10 9 8 8 8 8 9 9 8 8 9 9 10
27 23 23 22 22 23 20 22 21 22 22 23 23 24 24 26 28 31 32 33 31 37 37 33 31 32 34 34 33 32 33 36 37 35 32 27 22 20 19 16 14 12 11 10 10 9 9 9 10 11 10 10 10 10
36 33 36 36 33 37 38 39 38 39 40 42 45 48 48 47 49 48 47 47 52 51 53 55 59 51 45 42 39 40 39 38 34 29 28 27 25 24 23 23 22 18 16 14 13 12 12 12 13 13 12 12 12 12
45 43 38 36 38 40 41 44 42 42 41 43 46 44 49 49 49 49 48 50 55 59 54 45 43 48 52 50 44 40 34 29 29 28 28 27 29 33 32 30 29 29 27 26 25 23 20 18 16 14 13 13 14 14
51 49 50 54 47 46 46 46 46 49 52 52 48 51 51 50 49 44 46 49 52 51 51 50 48 46 44 41 38 35 33 31 30 30 28 27 26 26 27 29 29 28 26 25 24 24 24 24 24 24 23 22 21 20
43 43 47 46 50 54 57 53 50 50 49 46 47 46 47 47 46 45 44 41 42 42 42 43 43 42 41 40 38 36 34 32 30 28 28 27 26 24 24 24 23 22 21 20 21 21 21 20 20 20 20 20 19 19
48 51 51 50 51 52 53 56 59 61 60 59 59 57 54 51 47 44 41 40 39 37 35 33 31 30 30 28 27 26 25 24 23 22 21 21 21 20 20 21 21 21 21 21 20 20 21 21 20 20 19 19 19 20
60 63 68 69 69 70 70 72 70 68 64 62 58 54 51 50 49 48 46 43 42 41 37 35 34 31 28 26 24 22 21 19 18 18 17 17 17 17 17 16 15 14 13 12 12 10 9 9 8 8 7 7 6 6
74 72 69 67 66 65 65 63 60 59 57 52 47 42 37 34 31 29 25 22 18 15 13 12 11 10 10 9 8 8 8 8 7 7 7 7 6 6 6 6 6 6 6 5 5 5 5 5 5 5 5 5 5 5
67 61 54 49 43 40 38 34 31 28 26 24 21 18 16 15 14 13 11 10 9 8 8 7 7 6 6 6 6 6 5 5 5 5 4 4 4 4 4 4 4 4 4 4 4 4 4 4 4 4 4 4 4 4
36 33 30 28 26 24 22 20 18 16 14 13 12 11 10 9 9 8 7 6 6 6 6 5 5 5 5 4 4 4 4 4 4 4 4 3 3 3 3 3 3 3 3 3 3 3 3 3 3 3 3 3 3 3

GFSWCAN_250_rhum_114.txt.gz
RH
65 66 67 72 64 63 64 68 65 55 44 39 29 27 27 26 26 22 17 14 13 8 8 9 7 6 6 5 5 5 5 5 5 5 6 6 5 5 5 4 4 5 4 5 4 4 6 6 5 6 5 4 4 5
41 44 49 60 56 60 62 59 50 40 35 29 28 27 26 27 28 23 18 13 13 10 11 8 6 6 5 5 6 6 6 5 6 6 6 6 7 6 6 5 5 5 5 6 6 7 5 6 6 6 6 5 5 6
29 32 35 41 41 41 39 36 34 30 29 29 27 25 26 29 28 22 18 13 15 12 11 8 7 7 6 6 6 6 6 6 6 6 6 6 7 6 6 7 6 6 7 7 7 6 6 6 6 7 7 6 6 7
19 21 23 26 26 27 28 28 27 28 28 27 25 25 28 32 27 22 17 15 17 15 11 9 9 8 7 6 6 7 7 6 6 6 6 7 9 9 10 10 9 9 9 9 9 9 9 9 8 8 8 10 10 9
14 15 18 20 21 22 24 24 24 26 26 24 24 26 31 30 24 21 15 20 18 14 11 10 10 9 9 9 8 9 9 9 9 8 9 10 11 12 12 13 13 12 12 12 12 11 11 11 10 8 10 11 11 11
9 10 12 16 16 16 18 20 20 21 22 22 24 26 27 28 22 17 18 23 15 14 11 11 12 11 11 12 12 13 14 15 14 11 10 10 13 18 16 17 16 17 17 17 16 15 14 14 14 14 13 12 11 11
6 6 7 8 8 9 11 13 14 17 19 21 23 24 24 22 19 17 24 17 18 14 12 13 14 12 13 13 15 16 18 20 18 16 15 17 19 19 17 17 18 18 18 19 19 20 22 22 17 15 15 14 13 12
4 5 6 6 6 7 8 10 12 14 16 18 21 19 18 20 18 20 24 21 18 15 14 15 16 17 19 20 18 20 22 22 18 18 18 22 21 21 21 21 21 20 20 19 16 17 18 17 14 14 16 15 15 14
4 4 5 5 5 6 7 7 8 11 13 15 13 12 19 19 15 27 21 21 18 19 20 20 21 23 22 20 21 24 24 22 22 22 26 26 26 29 26 24 24 23 22 21 20 20 20 19 18 17 18 16 16 17
4 4 4 4 5 5 5 6 7 8 8 8 10 17 17 12 26 20 23 20 20 24 24 26 24 24 23 24 28 28 25 27 28 31 32 33 33 29 28 27 25 25 23 22 19 18 18 18 18 18 18 18 16 16
4 4 4 4 4 4 5 5 6 6 6 11 15 14 12 23 21 22 25 23 26 26 26 29 28 26 25 28 31 33 30 31 32 32 33 33 31 32 32 27 23 21 20 19 18 18 18 18 19 21 19 18 18 17
4 4 4 4 4 4 4 5 5 8 12 11 11 9 18 19 20 26 25 28 33 40 32 26 29 28 31 39 40 43 42 37 37 33 32 33 33 31 29 28 26 24 22 21 21 20 19 19 19 22 24 22 20 20
3 4 4 4 4 4 5 6 8 8 8 8 10 19 20 22 26 22 21 29 32 30 36 31 35 35 39 40 43 47 48 44 42 41 42 40 41 45 43 37 33 33 31 27 25 24 24 23 21 20 25 28 25 24
3 3 4 4 4 5 6 6 6 6 8 13 22 20 25 26 22 20 20 27 35 31 32 30 30 32 34 40 45 46 47 45 36 38 38 38 37 37 36 35 31 23 19 18 17 17 17 18 21 22 20 21 26 27
4 4 4 4 5 6 6 6 7 10 16 22 23 25 19 16 18 19 28 36 33 38 35 36 36 37 40 41 43 44 45 40 38 42 48 51 47 40 34 29 29 30 29 27 25 22 20 18 16 15 16 16 16 17
5 5 5 6 6 7 7 8 11 15 17 22 20 19 16 16 16 26 43 37 41 42 43 41 42 43 45 46 48 51 50 61 77 76 67 58 58 55 52 45 39 38 42 43 43 43 40 37 38 37 30 22 21 20
6 6 7 8 8 9 9 9 12 16 21 21 15 13 14 17 24 33 33 31 42 51 51 50 53 61 66 71 76 71 68 61 64 61 49 40 35 39 41 38 31 24 21 24 24 23 23 23 25 25 26 23 20 19
8 9 9 10 9 9 11 13 18 24 26 19 16 18 20 22 30 39 47 49 52 54 60 66 82 81 75 61 57 59 57 51 42 32 30 31 31 24 16 12 13 12 10 9 9 10 11 10 13 15 17 17 16 16
6 6 7 8 10 14 19 22 22 20 21 19 17 16 22 28 34 44 57 58 59 64 67 67 66 60 59 55 50 44 36 31 35 43 40 35 26 18 15 14 13 12 11 10 9 8 7 7 7 8 8 9 12 11
6 6 6 8 9 10 12 15 17 18 20 20 21 24 30 37 37 37 42 53 59 63 62 56 46 47 48 45 35 33 34 32 30 28 23 18 17 17 15 13 12 13 12 10 8 8 8 7 6 6 6 6 6 6
5 6 6 7 7 9 10 11 11 11 14 20 31 38 43 44 40 38 39 41 43 42 39 35 38 40 35 36 38 30 22 19 18 19 21 21 17 19 23 21 20 18 15 14 12 10 9 9 8 8 8 7 6 6
6 6 7 8 8 9 10 11 12 14 15 18 26 35 41 43 41 41 45 44 42 37 35 38 42 47 42 31 22 21 21 22 22 21 21 28 32 34 32 29 24 20 16 14 13 11 11 11 10 9 9 8 8 8
6 7 7 8 9 10 11 10 10 10 10 11 13 19 26 34 40 40 40 39 47 50 46 39 30 24 23 23 22 23 24 25 27 32 33 32 32 30 23 20 21 19 17 17 17 17 15 13 12 12 12 12 11 10
8 8 8 8 9 10 10 12 12 14 14 14 16 19 24 33 37 40 40 36 26 22 22 21 20 20 23 23 24 26 28 32 32 31 31 30 28 27 30 32 30 27 25 25 26 28 27 24 20 17 15 15 16 15
11 10 10 9 10 10 10 11 11 12 12 15 17 20 22 22 22 23 26 26 26 26 28 31 33 33 29 28 26 29 36 39 42 42 40 37 34 33 35 38 37 34 31 30 28 27 29 30 28 28 26 22 18 14
20 20 18 17 17 17 17 16 18 18 19 20 20 20 23 24 26 28 33 33 35 35 35 35 38 37 34 34 35 39 42 42 41 39 38 37 38 40 41 39 36 34 32 30 28 27 27 26 24 21 20 20 19 18
32 32 35 38 37 35 36 38 39 40 41 43 44 46 45 43 46 48 50 49 50 49 48 49 52 55 55 54 51 47 43 40 38 36 33 32 30 29 28 26 23 21 19 18 18 18 18 18 17 17 16 16 15 14
42 46 48 50 51 53 54 55 57 61 62 63 63 64 65 64 62 64 64 56 52 49 47 45 42 40 38 37 35 34 31 29 28 26 24 22 20 18 17 16 15 15 15 15 15 14 14 14 13 13 13 13 13 14
49 52 55 56 55 56 57 58 59 62 65 62 61 60 60 64 64 60 57 54 50 46 43 41 38 35 32 29 27 25 23 21 20 19 18 17 17 16 15 14 14 14 14 13 12 13 13 12 12 12 13 13 13 13
56 64 66 69 69 71 72 75 77 80 75 76 74 66 62 61 59 54 48 40 32 26 22 19 16 14 11 10 9 9 9 8 7 7 6 6 6 6 6 6 6 6 5 5 5 6 6 6 6 6 6 6 6 6
71 72 73 74 74 73 75 78 75 77 81 80 74 67 60 52 39 32 27 22 19 15 12 10 9 8 8 7 7 6 6 6 5 5 5 5 5 4 4 4 4 4 4 4 4 4 4 4 4 4 4 4 4 4
61 57 57 59 62 68 65 59 56 53 50 46 40 33 26 21 17 15 13 12 11 10 9 8 8 7 6 6 5 5 5 4 4 4 4 4 3 3 3 3 3 3 3 3 3 3 3 3 3 3 3 3 3 3
46 48 51 52 52 56 51 45 41 36 31 26 20 17 15 13 11 10 9 8 7 7 6 6 6 5 5 4 4 4 3 3 3 3 3 3 3 2 3 3 3 2 2 2 2 2 2 2 2 2 2 2 2 2

GFSWCAN_250_rhum_117.txt.gz
RH
77 77 80 82 93 98 96 97 91 85 87 86 81 73 71 70 49 42 30 28 22 16 15 12 9 10 8 7 6 5 5 5 5 6 5 5 5 4 4 4 4 4 5 5 5 5 4 5 5 6 5 6 6 6
68 75 77 81 84 90 90 92 91 88 88 78 73 74 67 47 38 34 29 27 20 17 18 12 12 9 7 7 6 5 5 6 6 5 5 5 5 5 6 6 6 6 6 6 6 5 5 6 6 5 5 5 6 5
54 58 54 62 75 78 80 86 80 80 78 74 63 55 46 35 30 32 30 26 18 20 18 13 14 10 8 7 7 6 6 6 6 5 6 6 6 7 7 8 8 8 8 8 8 8 7 7 6 6 5 4 4 4
35 42 46 45 58 68 66 67 67 61 57 51 46 39 34 27 29 32 32 26 18 25 14 16 15 12 9 8 9 8 7 7 7 7 8 8 9 8 9 10 11 10 10 9 9 8 8 8 8 6 6 7 8 8
24 28 31 36 42 50 54 51 47 44 40 37 34 30 27 25 29 32 33 26 20 24 15 18 14 14 12 10 10 10 9 10 11 10 11 10 10 11 12 12 12 13 13 13 11 10 10 9 8 7 8 7 7 6
15 17 20 22 26 29 28 29 30 29 29 28 27 26 24 25 31 33 35 25 22 20 19 18 15 14 14 13 12 11 12 13 13 16 14 14 12 13 14 15 17 18 18 18 18 16 16 14 16 17 13 11 10 9
10 13 14 18 20 22 21 23 23 24 24 23 23 23 21 25 31 36 31 25 22 18 20 17 16 14 16 15 14 13 15 17 20 22 17 15 14 17 19 22 20 21 21 20 20 22 19 19 16 15 14 14 12 12
6 8 9 10 12 15 16 16 16 18 18 18 18 18 19 26 35 33 31 23 21 22 19 17 17 16 18 19 17 20 20 20 27 25 20 20 18 21 21 22 22 20 18 19 18 18 18 17 16 16 15 15 14 14
4 5 5 6 6 7 8 9 11 12 14 14 14 14 20 34 34 25 28 21 22 21 18 20 20 21 23 22 24 22 17 21 27 26 22 22 21 20 22 23 24 22 21 20 18 18 18 17 15 14 15 14 14 14
3 4 4 5 6 7 7 8 8 8 8 8 11 16 28 32 16 24 23 20 24 20 20 25 22 26 25 22 21 20 22 26 27 27 26 25 24 25 25 29 27 26 25 22 22 23 22 21 19 16 15 14 14 13
4 5 5 5 5 5 6 6 6 6 6 9 13 20 23 15 13 21 21 23 20 21 26 28 24 26 24 24 24 23 24 27 27 28 28 30 30 28 29 30 30 28 26 26 24 24 23 21 20 18 18 16 15 15
4 4 4 4 4 4 5 5 6 7 8 9 11 10 9 9 18 18 19 20 20 24 28 27 26 26 28 28 33 36 36 35 32 34 35 31 31 32 30 28 27 27 26 24 23 22 22 21 20 19 18 17 16 17
3 4 4 4 4 4 4 5 6 6 6 6 6 7 9 16 17 16 16 18 23 27 28 28 32 31 29 33 38 41 41 43 44 42 40 37 38 36 35 33 31 29 27 25 23 23 22 20 19 18 20 21 20 19
4 4 4 4 4 4 4 5 5 6 6 5 7 12 16 16 14 17 18 26 30 30 33 34 35 36 34 38 39 35 35 38 43 44 40 38 39 35 30 28 26 25 24 23 21 20 19 18 18 17 16 16 19 18
4 4 4 4 4 4 4 4 4 5 6 8 12 12 9 10 16 17 26 30 27 27 33 40 42 40 34 35 37 37 37 38 39 39 40 41 38 36 36 38 37 38 40 47 51 50 45 38 33 30 26 23 21 20
3 4 4 4 4 4 4 5 5 7 10 10 10 9 12 15 17 23 27 27 26 34 35 32 40 40 37 35 37 38 42 46 45 44 43 43 51 56 55 56 59 60 58 56 48 42 37 31 28 28 27 25 23 23
4 4 4 4 4 5 6 7 8 8 8 8 8 11 16 22 26 30 26 26 39 39 39 41 44 46 45 44 45 43 45 48 55 61 64 56 50 56 64 64 62 56 47 38 33 28 24 20 16 14 13 12 12 13
4 5 5 6 6 7 7 7 7 7 7 8 11 17 22 26 30 24 22 31 40 47 46 51 59 54 51 53 64 68 63 64 59 49 46 51 49 49 42 28 21 17 15 15 13 12 12 13 14 15 14 12 11 11
5 5 5 6 8 11 12 11 11 9 11 15 23 25 28 31 26 24 30 43 44 56 67 72 68 55 57 66 69 63 57 52 48 50 55 52 45 36 20 16 15 16 16 16 14 12 10 9 9 8 8 8 8 8
8 8 9 10 10 10 10 10 13 14 18 26 33 34 34 33 33 35 42 55 56 55 57 59 55 59 60 58 57 55 44 47 52 48 41 30 21 16 16 19 20 17 16 17 15 15 13 11 10 8 8 7 6 6
10 11 13 12 11 12 15 16 17 19 25 31 39 41 43 36 31 32 34 40 38 39 43 43 43 46 48 50 48 43 47 46 24 16 16 15 15 16 19 20 22 24 24 24 23 21 17 14 12 11 9 8 8 8
7 8 9 11 12 11 12 13 17 24 29 32 30 32 35 37 36 34 36 34 33 34 37 45 54 58 55 52 51 42 25 19 18 18 17 16 16 17 20 23 24 27 28 27 28 24 19 16 14 12 11 11 10 10
7 7 8 9 10 10 12 12 13 14 19 21 23 21 23 27 32 35 41 44 47 53 56 54 48 42 31 24 21 19 20 20 20 19 20 19 20 26 29 30 34 34 33 35 37 35 31 28 23 21 18 14 12 11
7 8 10 10 11 11 12 12 12 12 12 14 18 21 24 30 34 38 45 47 42 38 33 28 24 19 20 21 21 21 21 19 17 17 20 23 27 31 33 34 34 36 39 40 37 35 31 29 28 28 28 26 23 20
7 8 9 9 10 11 12 12 13 14 15 16 18 21 25 31 35 43 48 45 39 30 24 22 22 24 25 23 23 24 26 31 30 30 31 31 30 30 30 29 30 32 34 37 37 35 32 29 25 23 22 22 24 24
10 11 10 11 12 12 12 13 14 14 15 16 18 20 24 28 31 32 33 33 35 38 38 39 39 37 37 39 38 36 33 33 31 31 32 33 33 32 29 28 26 25 24 25 24 24 23 22 22 21 20 19 18 19
17 16 16 15 16 17 18 17 18 21 23 24 26 31 36 42 48 49 51 52 53 53 52 49 47 43 40 39 37 35 34 32 31 29 27 26 24 23 22 20 18 18 17 17 17 17 17 16 15 15 14 14 14 15
30 32 33 32 35 36 37 38 40 42 43 43 46 51 55 58 60 64 70 69 67 63 59 55 52 49 45 42 38 35 33 30 27 25 23 21 19 18 18 17 16 16 16 16 15 15 15 15 15 15 15 15 15 15
40 43 46 49 52 55 58 61 63 66 72 74 77 80 81 88 82 77 71 66 61 56 51 46 41 36 33 30 27 25 24 22 21 20 18 16 13 12 10 10 8 8 8 7 7 7 7 7 7 6 7 7 7 7
54 60 60 67 73 76 78 85 86 86 80 85 85 76 73 74 70 64 59 52 43 35 29 23 18 14 11 10 9 9 8 8 7 7 6 6 6 6 5 5 5 5 5 5 5 5 5 5 4 4 4 4 4 4
68 68 68 70 74 76 75 77 73 72 77 82 81 75 68 63 49 39 31 24 20 16 14 12 12 11 9 8 7 6 6 6 5 5 5 4 4 4 4 4 4 4 4 4 4 4 4 4 3 3 3 3 3 3
64 64 63 65 65 64 66 65 64 64 65 61 54 48 40 32 26 20 17 14 12 11 10 9 8 7 6 6 5 5 4 4 4 3 3 3 3 3 3 3 3 3 2 2 2 2 2 2 2 2 2 3 3 3
53 50 54 54 53 59 60 57 51 49 43 39 35 27 22 19 16 14 11 10 8 7 6 6 5 5 4 4 4 4 3 3 3 3 3 3 3 3 3 2 2 2 2 2 2 2 2 2 2 2 2 2 2 2

GFSWCAN_250_rhum_123.txt.gz
RH
58 53 57 69 79 87 87 80 86 92 98 100 100 100 100 100 97 95 91 88 90 97 80 67 58 41 23 18 18 15 11 9 7 6 6 6 6 6 6 6 6 5 5 5 5 5 6 6 6 7 7 8 8 9
68 67 64 70 76 95 100 99 100 100 100 100 100 100 96 99 97 96 95 89 89 88 79 70 55 32 22 18 17 16 12 9 7 7 7 7 7 7 6 7 6 6 5 5 5 6 6 6 6 6 7 7 7 8
69 70 74 77 84 95 100 100 97 100 100 100 100 98 98 97 94 90 97 86 85 83 80 66 49 26 23 21 17 15 12 10 8 7 7 8 8 8 8 7 7 7 7 7 7 6 6 6 6 7 7 7 7 8
55 66 76 80 85 92 91 95 100 100 100 100 100 100 99 98 98 97 87 87 87 83 76 64 40 24 22 26 16 16 14 11 10 7 9 8 9 9 9 8 8 8 8 9 9 10 9 8 8 9 9 10 9 9
44 52 61 72 82 88 91 93 96 100 100 100 100 100 100 100 97 80 76 89 90 82 71 51 32 26 23 26 16 16 14 13 12 9 10 10 10 11 10 11 10 10 10 10 11 12 13 11 10 9 11 11 10 8
31 39 53 59 71 76 80 84 94 100 100 100 99 90 94 90 80 76 87 87 82 78 58 39 32 27 25 22 17 16 15 14 14 11 12 10 12 14 13 14 13 14 14 13 12 12 15 16 15 14 13 11 9 10
27 31 38 47 51 60 71 77 79 83 83 83 82 84 84 78 79 90 89 80 76 58 46 36 35 23 27 17 17 16 15 15 14 12 13 11 14 15 15 16 16 17 17 16 15 12 14 16 16 15 13 12 11 11
21 30 34 37 39 43 54 64 64 67 70 76 78 75 74 71 78 77 77 70 56 47 40 38 34 22 25 18 18 17 16 15 15 14 15 14 19 19 18 17 18 20 22 21 19 18 16 15 15 16 16 14 14 12
14 17 23 30 34 38 40 45 48 51 55 55 54 60 68 79 86 65 60 46 46 39 37 42 28 22 20 20 18 18 20 17 17 17 18 17 22 22 22 21 20 19 19 19 21 23 21 19 20 18 18 17 16 16
10 13 15 17 20 24 27 30 33 35 37 41 53 68 75 64 48 46 37 35 36 36 36 42 22 25 18 21 20 20 26 26 22 21 21 22 26 27 27 26 23 21 20 21 23 23 23 23 22 22 21 18 17 17
7 10 10 12 15 16 17 21 24 27 30 33 39 45 46 44 32 28 28 31 33 31 28 32 23 23 19 22 22 25 31 28 26 24 24 26 27 29 30 28 29 27 26 27 28 26 24 21 20 20 20 17 17 18
4 6 7 8 11 15 18 22 22 22 26 30 32 29 28 24 21 24 28 32 30 16 21 26 24 20 22 22 26 29 31 30 29 28 28 30 30 34 37 36 33 33 33 31 30 28 26 25 24 23 22 21 18 18
4 4 5 6 9 12 15 19 22 21 23 23 22 22 22 17 16 24 31 27 9 10 28 22 23 19 22 24 30 33 33 30 29 28 29 34 40 43 42 40 37 35 33 31 29 28 28 27 26 26 24 22 19 17
4 4 5 5 6 8 9 12 14 14 14 14 14 12 14 13 22 26 14 6 11 24 20 19 19 22 24 27 32 36 34 32 33 33 37 40 42 42 41 37 36 33 33 34 34 32 30 27 25 22 19 16 14 12
3 4 4 5 5 6 6 7 8 8 8 8 9 10 13 14 10 7 6 11 21 18 16 20 22 26 25 27 33 36 38 38 38 40 43 43 40 40 41 41 41 40 37 35 32 30 27 24 20 17 15 13 12 12
4 4 4 4 5 5 5 5 6 7 7 9 10 10 8 7 7 9 14 16 12 13 17 20 24 26 27 28 34 38 39 44 44 44 46 44 44 44 43 42 40 38 37 36 34 32 29 27 23 23 24 21 19 16
3 4 4 4 5 5 6 6 6 7 8 8 6 6 7 8 11 13 13 11 12 16 18 22 24 26 31 34 37 38 43 50 49 48 48 47 48 47 44 42 41 40 38 34 33 33 30 26 26 27 26 22 19 17
4 5 5 5 6 6 6 6 7 6 5 6 7 8 10 11 11 11 11 12 15 17 20 21 28 34 37 42 42 42 45 49 52 52 50 49 49 46 45 44 49 55 49 40 34 33 32 30 24 18 14 13 12 11
4 4 4 4 5 5 5 5 5 5 6 7 9 10 10 11 12 12 13 16 20 22 24 30 35 37 37 43 48 46 43 48 49 48 46 44 45 52 60 56 51 41 33 31 32 30 25 18 14 13 15 15 12 10
3 3 4 4 4 4 5 6 8 10 11 10 9 9 11 11 12 14 17 21 22 25 29 29 27 29 34 43 50 50 48 47 48 53 61 62 59 53 49 46 39 33 29 27 26 22 20 20 14 17 18 16 14 13
4 4 4 4 6 7 8 8 9 9 10 12 13 13 12 14 16 18 20 18 19 23 26 28 36 42 45 50 49 48 55 63 66 59 54 48 40 41 38 34 28 22 18 18 16 13 16 17 18 19 16 16 15 14
6 6 6 7 7 7 8 8 8 8 10 12 14 16 16 16 17 18 18 22 29 34 40 41 44 44 46 50 51 50 49 50 49 47 47 46 41 32 26 20 14 13 14 13 14 16 17 15 18 17 18 18 18 15
8 8 9 9 9 9 9 10 13 13 14 13 15 17 20 22 23 23 30 38 44 46 48 47 47 47 47 45 46 47 46 46 46 45 39 30 23 17 14 13 13 14 14 15 16 16 13 13 15 17 17 16 17 16
9 10 12 11 12 13 12 13 14 15 18 20 22 24 27 29 30 30 32 33 37 39 43 46 48 50 48 45 44 40 38 36 31 23 20 18 16 15 13 13 12 12 12 12 11 11 10 11 12 13 13 13 13 13
14 16 17 17 18 21 23 24 28 30 34 33 32 33 34 34 36 37 40 43 44 44 46 46 45 43 40 34 29 25 24 22 19 16 15 14 13 13 12 12 12 12 12 12 13 14 14 13 13 13 12 11 10 11
9 10 12 14 16 18 18 21 24 28 29 32 34 35 39 43 45 48 51 53 55 54 52 47 38 32 29 27 25 25 26 26 23 20 19 18 18 17 16 14 13 12 12 11 11 12 12 13 12 11 11 10 10 11
10 10 12 12 13 14 14 16 18 19 18 19 22 28 30 29 33 37 41 40 33 29 32 36 38 39 38 36 34 33 32 30 28 26 23 21 20 18 17 15 14 13 13 12 12 11 10 10 10 10 9 9 9 9
10 11 11 11 12 14 14 14 14 14 16 18 20 22 24 26 28 27 29 40 44 44 48 51 50 46 42 38 34 30 25 22 19 17 15 13 11 10 9 8 8 8 7 7 6 6 6 6 6 6 6 6 6 6
12 12 12 12 13 14 15 16 18 19 19 22 26 29 33 39 44 50 52 56 54 53 50 46 40 32 25 20 16 13 11 10 9 8 7 7 6 6 6 5 5 5 4 4 4 4 4 4 4 4 4 3 3 3
23 27 26 26 27 29 30 34 35 39 46 46 49 53 57 61 58 56 54 49 44 37 31 26 21 18 15 13 11 10 8 7 7 6 5 5 4 4 4 4 4 4 4 4 3 3 3 3 3 3 3 3 2 2
40 42 44 43 43 41 45 48 52 54 54 57 59 57 52 49 48 44 41 38 34 30 24 18 14 12 10 9 8 6 5 5 5 4 4 4 4 4 3 3 3 3 3 2 2 2 2 2 2 2 2 2 2 2
40 44 46 50 51 52 52 52 51 51 54 55 51 48 46 44 40 36 36 31 24 17 14 11 10 8 8 7 6 5 5 4 4 4 4 3 3 3 3 3 2 2 2 2 2 2 2 2 2 2 2 2 2 2
47 50 52 54 55 56 58 55 49 48 50 52 49 43 38 36 34 27 26 24 19 14 11 10 8 8 7 6 5 4 4 4 4 4 3 3 3 3 3 3 2 2 2 2 2 2 2 2 2 2 2 2 2 2

GFSWCAN_250_rhum_126.txt.gz
RH
59 62 57 52 62 83 89 97 92 95 96 100 100 100 99 98 100 100 100 100 100 97 89 99 92 88 84 70 45 34 20 15 12 10 9 7 7 6 6 6 6 6 6 6 6 6 7 6 6 8 10 9 9 10
55 60 52 47 55 62 70 74 73 93 100 100 100 100 100 100 100 100 100 99 100 100 100 96 93 88 81 56 41 28 20 16 13 12 9 8 7 7 7 7 7 7 6 6 7 6 6 6 6 7 7 8 8 8
52 55 62 59 54 56 59 65 69 80 100 100 99 100 100 100 100 100 97 100 100 100 100 96 94 88 65 53 42 27 20 17 13 12 10 9 8 8 8 8 8 8 8 7 7 7 8 8 8 8 8 8 9 9
48 53 63 66 67 63 62 71 78 94 100 100 100 100 100 100 100 100 100 99 99 98 100 99 94 76 60 52 37 25 21 19 16 13 12 11 9 9 9 10 10 9 9 8 9 10 10 10 10 10 10 11 13 14
45 50 58 64 69 72 77 79 85 96 97 100 100 100 100 100 100 100 96 100 99 100 100 100 85 65 59 51 32 25 22 20 17 14 14 12 10 10 10 12 12 12 11 11 10 11 12 14 13 13 12 10 10 10
38 48 59 66 72 73 76 86 86 90 91 100 100 100 100 100 100 100 100 98 97 100 94 91 74 63 58 41 28 25 23 18 17 14 15 14 12 12 11 14 15 15 15 13 13 11 13 15 15 16 15 12 10 9
30 38 51 63 69 80 83 86 93 91 94 99 98 96 100 98 97 100 99 98 100 90 91 83 71 67 49 32 27 27 22 19 16 15 16 15 14 13 13 16 20 19 15 16 16 15 14 15 17 17 16 15 14 14
22 29 36 51 63 74 81 82 91 97 98 100 99 100 100 99 100 97 98 99 90 83 84 68 68 62 42 29 29 26 21 19 15 17 17 16 15 14 16 19 20 20 18 17 21 20 18 20 21 19 20 18 17 16
17 22 28 40 47 62 73 76 80 85 93 93 88 89 97 99 98 90 88 79 87 87 68 60 64 50 38 24 31 25 21 18 17 19 23 20 18 16 20 24 26 25 23 22 21 21 22 23 22 23 21 20 20 19
14 18 23 32 36 45 60 67 69 70 70 76 86 94 100 91 77 74 77 91 90 74 51 56 56 46 34 21 32 22 22 20 21 23 30 27 23 20 24 28 31 30 28 25 26 27 26 28 27 29 28 25 24 23
12 16 21 26 29 32 40 48 53 56 66 78 90 90 84 75 72 68 67 69 65 57 53 46 46 44 37 22 26 24 24 23 22 26 31 32 28 24 26 32 33 39 34 31 30 31 30 29 28 26 25 24 23 22
9 14 18 22 25 26 30 33 43 53 60 60 55 56 58 48 43 44 59 55 57 57 45 34 43 44 30 22 24 25 24 25 21 29 32 32 29 28 32 35 36 36 39 37 34 34 33 29 27 26 25 25 24 22
7 10 13 16 20 22 24 30 38 42 44 41 38 40 40 36 34 42 47 49 46 37 34 38 39 30 24 22 22 24 25 26 26 28 29 29 31 32 34 40 41 42 38 37 33 29 27 29 29 29 26 23 21 19
5 6 7 10 14 18 21 26 30 30 27 26 28 26 26 26 32 43 42 39 28 26 22 31 27 21 19 19 23 25 28 26 25 24 29 32 33 36 35 39 40 37 34 33 37 38 36 30 27 24 22 19 17 15
4 4 5 6 8 12 16 23 24 22 20 22 24 22 28 28 33 35 34 26 24 18 18 19 15 17 18 20 22 30 31 28 28 30 32 33 35 36 39 37 37 37 39 38 35 32 29 27 24 23 21 18 18 17
4 4 4 5 6 9 12 15 15 14 14 18 20 21 26 24 24 25 22 15 12 13 16 12 13 16 18 21 25 34 32 30 31 32 34 36 36 38 39 40 39 36 35 34 34 32 29 26 24 22 22 23 25 22
4 5 5 5 5 6 6 9 10 10 12 16 18 18 19 16 12 10 10 11 12 12 11 11 13 14 17 22 27 32 34 32 30 30 34 40 41 43 44 41 40 40 39 38 38 34 30 27 31 33 33 31 26 25
3 4 4 5 5 6 6 7 9 10 12 13 11 9 9 9 10 12 14 12 10 9 10 13 14 18 22 24 31 32 32 33 32 32 37 42 42 40 41 42 40 39 40 38 33 32 38 43 41 34 32 31 19 15
4 4 5 5 5 6 7 8 8 8 7 7 7 8 10 12 12 11 9 8 9 11 15 17 20 23 27 28 33 34 32 36 36 35 35 36 40 42 42 41 41 40 41 45 44 39 36 34 32 29 27 25 17 15
3 3 4 4 4 5 5 5 5 6 8 9 10 10 10 9 8 8 8 10 14 17 19 20 20 24 30 33 32 29 29 36 38 36 38 37 36 39 45 59 58 56 52 43 34 30 28 26 27 26 25 22 18 19
4 4 4 4 4 5 6 7 7 8 9 9 8 8 7 7 7 9 14 16 17 19 20 22 26 31 32 36 36 34 35 38 41 42 43 43 47 63 64 56 52 47 38 32 28 25 20 14 14 17 16 14 15 16
5 5 6 6 6 5 6 5 6 6 6 6 7 8 10 11 13 18 20 21 24 26 27 30 34 36 36 35 34 36 40 41 43 48 59 60 57 52 49 43 35 30 28 25 19 13 11 11 10 10 10 11 14 14
4 4 4 4 5 5 5 5 6 6 7 8 12 13 15 18 20 22 26 26 29 30 31 35 40 42 45 47 50 52 55 58 57 55 51 47 43 39 34 27 22 17 14 12 12 12 11 11 11 11 11 12 11 11
5 5 5 6 6 7 8 8 9 11 13 17 19 20 20 21 21 22 22 25 32 40 41 40 41 45 47 47 46 46 48 50 48 42 34 28 23 18 16 15 15 14 13 13 11 10 10 10 10 10 10 10 11 11
7 7 7 8 10 11 14 15 16 18 17 18 20 22 22 23 23 24 27 32 34 37 40 44 48 49 50 52 48 42 35 30 24 18 18 18 17 16 16 17 17 16 15 13 12 11 11 11 10 9 9 9 9 10
10 10 10 12 14 15 18 24 21 18 17 18 20 23 25 25 29 34 40 45 48 50 49 48 45 42 37 30 24 24 26 29 33 35 36 32 30 26 22 19 18 14 15 14 13 12 11 10 9 8 8 8 8 8
12 12 13 15 18 19 20 24 24 22 22 25 28 29 31 31 37 43 45 48 48 49 47 42 36 39 45 50 51 52 51 48 43 36 30 25 21 19 17 16 15 14 13 12 12 11 10 9 8 7 7 7 7 7
13 13 13 13 14 14 18 20 23 24 26 30 35 39 42 44 45 41 40 44 46 42 46 52 58 60 58 54 50 44 36 29 22 18 14 12 10 8 8 7 7 6 6 5 5 5 5 4 4 4 4 4 4 4
10 11 11 11 12 13 14 14 16 18 18 21 24 24 26 30 36 41 43 48 57 65 65 61 58 53 46 38 31 24 18 15 12 11 9 8 7 6 5 5 4 4 4 4 4 4 4 4 4 3 3 3 3 3
11 11 12 12 12 13 14 16 17 18 21 24 27 31 36 47 53 59 64 65 63 61 56 49 44 38 30 24 17 13 11 10 8 7 6 5 5 4 4 4 4 3 3 3 3 3 2 2 2 2 2 2 2 2
23 24 21 21 20 23 24 28 34 37 43 52 59 61 60 57 56 57 56 52 48 45 42 37 32 25 18 13 10 8 8 7 6 5 4 4 4 4 4 3 3 3 3 3 3 2 2 2 2 2 2 2 2 2
32 34 35 37 42 44 46 50 55 57 57 55 53 55 58 62 62 56 46 39 36 36 33 27 20 14 14 11 9 8 7 6 4 4 4 4 4 4 3 3 3 3 3 3 2 2 2 2 2 2 2 2 2 2
39 39 42 44 46 48 50 52 52 54 52 49 52 58 59 56 51 44 38 34 32 28 24 20 16 13 12 9 8 6 6 5 4 4 4 4 4 3 3 3 3 2 2 2 2 2 2 2 2 2 2 2 2 2